MAX VALIER SAT (42778 NORAD) Tracking and Keplerian Element Data

This shows tracking and keplerian element data for the satellite.

Feedback or suggestion? Click here.




ElementValue
Catalog42778
NameMAX VALIER SAT
Epoch Orbit30075
Epoch Day324.61983474
Epoch Year2022
RAAN0.4608
Inclination97.1876
Eccentricity0.0011583
Argument of Perigee124.6088
Mean Anonmoly235.6247
Mean Motion15.29978702
Decay Rate9.442E-05
L11 42778U 17036P 22324.61983474 .00009442 00000+0 32716-3 0 9990
L22 42778 97.1876 0.4608 0011583 124.6088 235.6247 15.29978702300757



Live tracking and technical data element details for MAX VALIER SAT (NORAD 42778). MAX VALIER SAT can be tracked NOW for your location showing map with azimuth and elevation plus other details from your city location.







IsCatalogInMostPopularTable: catalog: 42778, numindb: 647
Update: records affected: 1



GetName: 42778 MAX VALIER SAT

Hit Count: updated at: Mon, 28 Nov 2022 06:08:43 GMT